Year,Month,Day,Hour,Minute,Value (Times are PST for barometer in hPa)
2017,04,09,11,42,1014.30
2017,04,09,11,43,1014.30
2017,04,09,11,44,1014.30
2017,04,09,11,45,1014.30
2017,04,09,11,46,1014.30
2017,04,09,11,47,1014.30
2017,04,09,11,48,1014.30
2017,04,09,11,49,1014.30
2017,04,09,11,50,1014.20
2017,04,09,11,51,1014.20
2017,04,09,11,52,1014.10
2017,04,09,11,53,1014.20
2017,04,09,11,54,1014.00
2017,04,09,11,55,1014.00
2017,04,09,11,56,1014.10
2017,04,09,11,57,1014.00
2017,04,09,11,58,1014.00
2017,04,09,11,59,1013.90
2017,04,09,12,00,1014.00
2017,04,09,12,01,1014.00
2017,04,09,12,02,1013.90
2017,04,09,12,03,1013.90
2017,04,09,12,04,1014.00
2017,04,09,12,05,1014.00
2017,04,09,12,06,1013.90
2017,04,09,12,07,1014.00
2017,04,09,12,08,1014.00
2017,04,09,12,09,1014.00
2017,04,09,12,10,1014.00
2017,04,09,12,11,1014.00
2017,04,09,12,12,1013.90
2017,04,09,12,13,1013.90
2017,04,09,12,14,1013.90
2017,04,09,12,15,1013.90
2017,04,09,12,16,1013.80
2017,04,09,12,17,1013.80
2017,04,09,12,18,1013.90
2017,04,09,12,19,1013.90
2017,04,09,12,20,1013.80
2017,04,09,12,21,1013.80
2017,04,09,12,22,1013.80
2017,04,09,12,23,1013.80
2017,04,09,12,24,1013.90
2017,04,09,12,25,1013.80
2017,04,09,12,26,1013.80
2017,04,09,12,27,1013.80
2017,04,09,12,29,1013.80
2017,04,09,12,31,1013.80
2017,04,09,12,32,1013.80
2017,04,09,12,33,1013.80
2017,04,09,12,34,1013.80
2017,04,09,12,36,1013.80
2017,04,09,12,37,1013.80
2017,04,09,12,38,1013.80
2017,04,09,12,39,1013.80
2017,04,09,12,41,1013.80
2017,04,09,12,42,1013.80
2017,04,09,12,43,1013.80
2017,04,09,12,44,1013.90
2017,04,09,12,46,1013.80
2017,04,09,12,47,1013.80
2017,04,09,12,48,1013.80
2017,04,09,12,49,1013.80
2017,04,09,12,51,1013.80
2017,04,09,12,52,1013.80
2017,04,09,12,53,1013.80
2017,04,09,12,54,1013.80
2017,04,09,12,56,1013.80
2017,04,09,12,57,1013.80
2017,04,09,12,58,1013.80
2017,04,09,12,59,1013.80
2017,04,09,13,01,1013.80
2017,04,09,13,02,1013.80
2017,04,09,13,03,1013.80
2017,04,09,13,04,1013.80
2017,04,09,13,06,1013.80
2017,04,09,13,07,1013.80
2017,04,09,13,08,1013.80
2017,04,09,13,09,1013.70
2017,04,09,13,11,1013.70
2017,04,09,13,12,1013.70
2017,04,09,13,13,1013.70
2017,04,09,13,14,1013.60
2017,04,09,13,16,1013.70
2017,04,09,13,17,1013.70
2017,04,09,13,18,1013.60
2017,04,09,13,19,1013.60
2017,04,09,13,21,1013.70
2017,04,09,13,22,1013.70
2017,04,09,13,23,1013.50
2017,04,09,13,24,1013.40
2017,04,09,13,26,1013.40
2017,04,09,13,27,1013.30
2017,04,09,13,28,1013.30
2017,04,09,13,29,1013.40
2017,04,09,13,31,1013.40
2017,04,09,13,32,1013.40
2017,04,09,13,33,1013.30
2017,04,09,13,34,1013.40
2017,04,09,13,36,1013.30
2017,04,09,13,37,1013.30
2017,04,09,13,38,1013.20
2017,04,09,13,39,1013.30
2017,04,09,13,41,1013.20
2017,04,09,13,42,1013.20
2017,04,09,13,43,1013.20
2017,04,09,13,44,1013.20
2017,04,09,13,46,1013.20
2017,04,09,13,47,1013.20
2017,04,09,13,48,1013.20
2017,04,09,13,49,1013.20
2017,04,09,13,51,1013.20
2017,04,09,13,52,1013.20
2017,04,09,13,53,1013.20
2017,04,09,13,54,1013.20
2017,04,09,13,55,1013.20
2017,04,09,13,56,1013.20
2017,04,09,13,57,1013.20
2017,04,09,13,58,1013.10
2017,04,09,13,59,1013.10
2017,04,09,14,00,1013.00
2017,04,09,14,01,1013.10
2017,04,09,14,02,1013.10
2017,04,09,14,03,1013.10
2017,04,09,14,04,1013.10
2017,04,09,14,05,1013.00
2017,04,09,14,06,1013.00
2017,04,09,14,07,1013.00
2017,04,09,14,08,1012.90
2017,04,09,14,09,1012.90
2017,04,09,14,10,1012.90
2017,04,09,14,11,1012.80
2017,04,09,14,12,1012.80
2017,04,09,14,13,1012.80
2017,04,09,14,14,1012.80
2017,04,09,14,15,1012.80
2017,04,09,14,16,1012.70
2017,04,09,14,17,1012.70
2017,04,09,14,18,1012.70
2017,04,09,14,19,1012.70
2017,04,09,14,20,1012.70
2017,04,09,14,21,1012.70
2017,04,09,14,22,1012.70
2017,04,09,14,23,1012.70
2017,04,09,14,24,1012.70
2017,04,09,14,25,1012.70
2017,04,09,14,26,1012.70
2017,04,09,14,27,1012.70
2017,04,09,14,28,1012.70
2017,04,09,14,29,1012.70
2017,04,09,14,30,1012.70
2017,04,09,14,31,1012.70
2017,04,09,14,32,1012.70
2017,04,09,14,33,1012.70
2017,04,09,14,34,1012.70
2017,04,09,14,35,1012.70
2017,04,09,14,36,1012.70
2017,04,09,14,37,1012.70
2017,04,09,14,38,1012.70
2017,04,09,14,39,1012.70
2017,04,09,14,40,1012.70
2017,04,09,14,41,1012.60
2017,04,09,14,42,1012.60
2017,04,09,14,43,1012.50
2017,04,09,14,44,1012.50
2017,04,09,14,45,1012.60
2017,04,09,14,46,1012.60
2017,04,09,14,47,1012.60
2017,04,09,14,48,1012.60
2017,04,09,14,49,1012.70
2017,04,09,14,50,1012.60
2017,04,09,14,51,1012.60
2017,04,09,14,52,1012.60
2017,04,09,14,53,1012.70
2017,04,09,14,54,1012.60
2017,04,09,14,55,1012.60
2017,04,09,14,56,1012.60
2017,04,09,14,57,1012.60
2017,04,09,14,58,1012.60
2017,04,09,14,59,1012.60
2017,04,09,15,00,1012.50
2017,04,09,15,01,1012.50
2017,04,09,15,02,1012.40
2017,04,09,15,03,1012.50
2017,04,09,15,04,1012.40
2017,04,09,15,05,1012.30
2017,04,09,15,06,1012.30
2017,04,09,15,07,1012.20
2017,04,09,15,08,1012.20
2017,04,09,15,09,1012.20
2017,04,09,15,10,1012.20
2017,04,09,15,11,1012.20
2017,04,09,15,12,1012.20
2017,04,09,15,13,1012.20
2017,04,09,15,14,1012.20
2017,04,09,15,16,1012.20
2017,04,09,15,17,1012.20
2017,04,09,15,18,1012.20
2017,04,09,15,19,1012.20
2017,04,09,15,21,1012.20
2017,04,09,15,22,1012.20
2017,04,09,15,23,1012.20
2017,04,09,15,24,1012.20
2017,04,09,15,26,1012.20
2017,04,09,15,27,1012.20
2017,04,09,15,28,1012.20
2017,04,09,15,29,1012.20
2017,04,09,15,31,1012.10
2017,04,09,15,32,1012.10
2017,04,09,15,33,1012.10
2017,04,09,15,34,1012.10
2017,04,09,15,36,1012.00
2017,04,09,15,37,1012.00
2017,04,09,15,38,1012.00
2017,04,09,15,39,1011.90
2017,04,09,15,41,1011.90
2017,04,09,15,42,1011.90
2017,04,09,15,43,1011.90
2017,04,09,15,44,1011.90
2017,04,09,15,46,1011.90
2017,04,09,15,47,1011.80
2017,04,09,15,48,1011.90
2017,04,09,15,49,1011.90
2017,04,09,15,51,1012.00
2017,04,09,15,52,1012.00
2017,04,09,15,53,1012.00
2017,04,09,15,54,1011.90
2017,04,09,15,56,1011.90
2017,04,09,15,57,1011.80
2017,04,09,15,58,1011.80
2017,04,09,15,59,1011.80
2017,04,09,16,01,1011.70
2017,04,09,16,02,1011.70
2017,04,09,16,03,1011.80
2017,04,09,16,04,1011.70
2017,04,09,16,06,1011.70
2017,04,09,16,07,1011.70
2017,04,09,16,08,1011.70
2017,04,09,16,09,1011.70
2017,04,09,16,11,1011.60
2017,04,09,16,12,1011.60
2017,04,09,16,13,1011.50
2017,04,09,16,14,1011.50
2017,04,09,16,16,1011.40
2017,04,09,16,17,1011.40
2017,04,09,16,18,1011.40
2017,04,09,16,19,1011.30
2017,04,09,16,21,1011.30
2017,04,09,16,22,1011.30
2017,04,09,16,23,1011.20
2017,04,09,16,24,1011.20
2017,04,09,16,26,1011.20
2017,04,09,16,27,1011.20
2017,04,09,16,28,1011.20
2017,04,09,16,29,1011.20
2017,04,09,16,31,1011.10
2017,04,09,16,32,1011.10
2017,04,09,16,33,1011.10
2017,04,09,16,34,1011.10
2017,04,09,16,36,1011.10
2017,04,09,16,37,1011.10
2017,04,09,16,38,1011.10
2017,04,09,16,39,1011.10
2017,04,09,16,40,1011.00
2017,04,09,16,41,1011.00
2017,04,09,16,42,1011.00
2017,04,09,16,43,1010.90
2017,04,09,16,44,1010.90
2017,04,09,16,45,1010.90
2017,04,09,16,46,1010.80
2017,04,09,16,47,1010.90
2017,04,09,16,48,1010.80
2017,04,09,16,49,1010.70
2017,04,09,16,50,1010.70
2017,04,09,16,51,1010.70
2017,04,09,16,52,1010.60
2017,04,09,16,53,1010.60
2017,04,09,16,54,1010.60
2017,04,09,16,55,1010.60
2017,04,09,16,56,1010.60
2017,04,09,16,57,1010.60
2017,04,09,16,58,1010.60
2017,04,09,16,59,1010.60
2017,04,09,17,00,1010.60
2017,04,09,17,01,1010.60
2017,04,09,17,02,1010.60
2017,04,09,17,03,1010.60
2017,04,09,17,04,1010.60
2017,04,09,17,05,1010.60
2017,04,09,17,06,1010.60
2017,04,09,17,07,1010.60
2017,04,09,17,08,1010.60
2017,04,09,17,09,1010.60
2017,04,09,17,10,1010.60
2017,04,09,17,11,1010.60
2017,04,09,17,12,1010.60
2017,04,09,17,13,1010.60
2017,04,09,17,14,1010.60
2017,04,09,17,15,1010.60
2017,04,09,17,16,1010.60
2017,04,09,17,17,1010.60
2017,04,09,17,18,1010.60
2017,04,09,17,19,1010.60
2017,04,09,17,20,1010.50
2017,04,09,17,21,1010.50
2017,04,09,17,22,1010.60
2017,04,09,17,23,1010.50
2017,04,09,17,24,1010.60
2017,04,09,17,25,1010.60
2017,04,09,17,26,1010.50
2017,04,09,17,27,1010.60
2017,04,09,17,28,1010.60
2017,04,09,17,29,1010.60
2017,04,09,17,30,1010.60
2017,04,09,17,31,1010.50
2017,04,09,17,32,1010.50
2017,04,09,17,33,1010.50
2017,04,09,17,34,1010.40
2017,04,09,17,35,1010.40
2017,04,09,17,36,1010.40
2017,04,09,17,37,1010.40
2017,04,09,17,38,1010.30
2017,04,09,17,39,1010.20
2017,04,09,17,40,1010.20
2017,04,09,17,41,1010.20
2017,04,09,17,42,1010.20
2017,04,09,17,43,1010.10
2017,04,09,17,44,1010.10
2017,04,09,17,45,1010.10
2017,04,09,17,46,1010.10
2017,04,09,17,47,1010.10
2017,04,09,17,48,1010.10
2017,04,09,17,49,1010.10
2017,04,09,17,50,1010.10
2017,04,09,17,51,1010.10
2017,04,09,17,53,1010.10
2017,04,09,17,54,1010.10
2017,04,09,17,56,1010.10
2017,04,09,17,57,1010.10
2017,04,09,17,58,1010.10
2017,04,09,17,59,1010.10
2017,04,09,18,01,1010.10
2017,04,09,18,02,1010.10
2017,04,09,18,03,1010.10
2017,04,09,18,04,1010.10
2017,04,09,18,06,1010.00
2017,04,09,18,07,1010.00
2017,04,09,18,08,1010.00
2017,04,09,18,09,1010.00
2017,04,09,18,11,1009.90
2017,04,09,18,12,1009.90
2017,04,09,18,13,1010.00
2017,04,09,18,14,1009.90
2017,04,09,18,16,1009.90
2017,04,09,18,17,1009.80
2017,04,09,18,18,1009.80
2017,04,09,18,19,1009.80
2017,04,09,18,21,1009.80
2017,04,09,18,22,1009.80
2017,04,09,18,23,1009.70
2017,04,09,18,24,1009.70
2017,04,09,18,26,1009.70
2017,04,09,18,27,1009.60
2017,04,09,18,28,1009.60
2017,04,09,18,29,1009.60
2017,04,09,18,31,1009.60
2017,04,09,18,32,1009.60
2017,04,09,18,33,1009.60
2017,04,09,18,34,1009.60
2017,04,09,18,36,1009.60
2017,04,09,18,37,1009.60
2017,04,09,18,38,1009.60
2017,04,09,18,39,1009.60
2017,04,09,18,41,1009.60
2017,04,09,18,42,1009.60
2017,04,09,18,43,1009.60
2017,04,09,18,44,1009.60
2017,04,09,18,46,1009.60
2017,04,09,18,47,1009.60
2017,04,09,18,48,1009.60
2017,04,09,18,49,1009.50
2017,04,09,18,51,1009.50
2017,04,09,18,52,1009.50
2017,04,09,18,53,1009.40
2017,04,09,18,54,1009.50
2017,04,09,18,56,1009.50
2017,04,09,18,57,1009.50
2017,04,09,18,58,1009.50
2017,04,09,18,59,1009.50
2017,04,09,19,01,1009.40
2017,04,09,19,02,1009.40
2017,04,09,19,03,1009.50
2017,04,09,19,04,1009.40
2017,04,09,19,06,1009.40
2017,04,09,19,07,1009.40
2017,04,09,19,08,1009.40
2017,04,09,19,09,1009.40
2017,04,09,19,11,1009.30
2017,04,09,19,12,1009.30
2017,04,09,19,13,1009.20
2017,04,09,19,14,1009.20
2017,04,09,19,15,1009.10
2017,04,09,19,16,1009.10
2017,04,09,19,17,1009.10
2017,04,09,19,18,1009.10
2017,04,09,19,19,1009.10
2017,04,09,19,20,1009.10
2017,04,09,19,21,1009.10
2017,04,09,19,22,1009.10
2017,04,09,19,23,1009.10
2017,04,09,19,24,1009.10
2017,04,09,19,25,1009.10
2017,04,09,19,26,1009.10
2017,04,09,19,27,1009.10
2017,04,09,19,28,1009.10
2017,04,09,19,29,1009.10
2017,04,09,19,30,1009.10
2017,04,09,19,31,1009.10
2017,04,09,19,32,1009.10
2017,04,09,19,33,1009.10
2017,04,09,19,34,1009.00
2017,04,09,19,35,1009.00
2017,04,09,19,36,1009.10
2017,04,09,19,37,1009.00
2017,04,09,19,38,1009.10
2017,04,09,19,39,1009.10
2017,04,09,19,40,1009.10
2017,04,09,19,41,1009.10
2017,04,09,19,42,1009.00
2017,04,09,19,43,1009.10
2017,04,09,19,44,1009.00
2017,04,09,19,45,1009.00
2017,04,09,19,46,1009.00
2017,04,09,19,47,1009.00
2017,04,09,19,48,1009.00
2017,04,09,19,49,1008.90
2017,04,09,19,50,1008.90
2017,04,09,19,51,1008.90
2017,04,09,19,52,1008.70
2017,04,09,19,53,1008.70
2017,04,09,19,54,1008.70
2017,04,09,19,55,1008.60
2017,04,09,19,56,1008.60
2017,04,09,19,57,1008.60
2017,04,09,19,58,1008.60
2017,04,09,19,59,1008.60
2017,04,09,20,00,1008.60
2017,04,09,20,01,1008.60
2017,04,09,20,02,1008.60
2017,04,09,20,03,1008.60
2017,04,09,20,04,1008.60
2017,04,09,20,05,1008.50
2017,04,09,20,06,1008.50
2017,04,09,20,07,1008.50
2017,04,09,20,08,1008.50
2017,04,09,20,09,1008.50
2017,04,09,20,10,1008.50
2017,04,09,20,11,1008.50
2017,04,09,20,12,1008.50
2017,04,09,20,13,1008.50
2017,04,09,20,14,1008.50
2017,04,09,20,15,1008.50
2017,04,09,20,16,1008.50
2017,04,09,20,17,1008.50
2017,04,09,20,18,1008.50
2017,04,09,20,19,1008.40
2017,04,09,20,20,1008.40
2017,04,09,20,21,1008.40
2017,04,09,20,22,1008.40
2017,04,09,20,23,1008.40
2017,04,09,20,24,1008.40
2017,04,09,20,25,1008.40
2017,04,09,20,26,1008.40
2017,04,09,20,27,1008.40
2017,04,09,20,28,1008.40
2017,04,09,20,29,1008.40
2017,04,09,20,30,1008.40
2017,04,09,20,31,1008.40
2017,04,09,20,32,1008.40
2017,04,09,20,33,1008.40
2017,04,09,20,34,1008.40
2017,04,09,20,36,1008.40
2017,04,09,20,38,1008.50
2017,04,09,20,39,1008.50
2017,04,09,20,41,1008.40
2017,04,09,20,42,1008.40
2017,04,09,20,43,1008.40
2017,04,09,20,44,1008.40
2017,04,09,20,46,1008.40
2017,04,09,20,47,1008.40
2017,04,09,20,48,1008.40
2017,04,09,20,49,1008.40
2017,04,09,20,51,1008.50
2017,04,09,20,52,1008.50
2017,04,09,20,53,1008.50
2017,04,09,20,54,1008.50
2017,04,09,20,56,1008.50
2017,04,09,20,57,1008.50
2017,04,09,20,58,1008.50
2017,04,09,20,59,1008.50
2017,04,09,21,01,1008.50
2017,04,09,21,02,1008.50
2017,04,09,21,03,1008.50
2017,04,09,21,04,1008.50
2017,04,09,21,06,1008.50
2017,04,09,21,07,1008.50
2017,04,09,21,08,1008.50
2017,04,09,21,09,1008.50
2017,04,09,21,11,1008.50
2017,04,09,21,12,1008.50
2017,04,09,21,13,1008.50
2017,04,09,21,14,1008.50
2017,04,09,21,16,1008.50
2017,04,09,21,17,1008.50
2017,04,09,21,18,1008.50
2017,04,09,21,19,1008.50
2017,04,09,21,21,1008.50
2017,04,09,21,22,1008.50
2017,04,09,21,23,1008.50
2017,04,09,21,24,1008.50
2017,04,09,21,26,1008.50
2017,04,09,21,27,1008.50
2017,04,09,21,28,1008.50
2017,04,09,21,29,1008.50
2017,04,09,21,31,1008.50
2017,04,09,21,32,1008.50
2017,04,09,21,33,1008.50
2017,04,09,21,34,1008.50
2017,04,09,21,36,1008.50
2017,04,09,21,37,1008.50
2017,04,09,21,38,1008.50
2017,04,09,21,39,1008.50
2017,04,09,21,41,1008.50
2017,04,09,21,42,1008.50
2017,04,09,21,43,1008.50
2017,04,09,21,44,1008.50
2017,04,09,21,46,1008.50
2017,04,09,21,47,1008.50
2017,04,09,21,48,1008.50
2017,04,09,21,49,1008.50
2017,04,09,21,51,1008.50
2017,04,09,21,52,1008.50
2017,04,09,21,53,1008.50
2017,04,09,21,54,1008.50
2017,04,09,21,55,1008.50
2017,04,09,21,56,1008.50
2017,04,09,21,57,1008.50
2017,04,09,21,58,1008.50
2017,04,09,21,59,1008.50
2017,04,09,22,00,1008.50
2017,04,09,22,01,1008.50
2017,04,09,22,02,1008.50
2017,04,09,22,03,1008.50
2017,04,09,22,04,1008.50
2017,04,09,22,06,1008.50
2017,04,09,22,07,1008.50
2017,04,09,22,08,1008.50
2017,04,09,22,09,1008.50
2017,04,09,22,10,1008.50
2017,04,09,22,11,1008.50
2017,04,09,22,12,1008.50
2017,04,09,22,13,1008.50
2017,04,09,22,14,1008.50
2017,04,09,22,15,1008.50
2017,04,09,22,16,1008.40
2017,04,09,22,17,1008.30
2017,04,09,22,18,1008.20
2017,04,09,22,19,1008.30
2017,04,09,22,20,1008.20
2017,04,09,22,21,1008.20
2017,04,09,22,22,1008.20
2017,04,09,22,23,1008.20
2017,04,09,22,24,1008.30
2017,04,09,22,25,1008.40
2017,04,09,22,26,1008.40
2017,04,09,22,27,1008.30
2017,04,09,22,28,1008.30
2017,04,09,22,29,1008.40
2017,04,09,22,30,1008.30
2017,04,09,22,31,1008.30
2017,04,09,22,32,1008.20
2017,04,09,22,33,1008.10
2017,04,09,22,34,1008.10
2017,04,09,22,35,1008.10
2017,04,09,22,36,1008.10
2017,04,09,22,37,1008.10
2017,04,09,22,38,1008.00
2017,04,09,22,39,1008.00
2017,04,09,22,40,1008.00
2017,04,09,22,41,1008.00
2017,04,09,22,42,1008.00
2017,04,09,22,43,1008.00
2017,04,09,22,44,1007.90
2017,04,09,22,45,1008.00
2017,04,09,22,46,1008.00
2017,04,09,22,47,1007.80
2017,04,09,22,48,1007.80
2017,04,09,22,49,1007.80
2017,04,09,22,50,1007.70
2017,04,09,22,51,1007.60
2017,04,09,22,52,1007.60
2017,04,09,22,53,1007.50
2017,04,09,22,54,1007.40
2017,04,09,22,55,1007.50
2017,04,09,22,56,1007.50
2017,04,09,22,57,1007.50
2017,04,09,22,58,1007.50
2017,04,09,22,59,1007.50
2017,04,09,23,00,1007.50
2017,04,09,23,01,1007.50
2017,04,09,23,02,1007.50
2017,04,09,23,03,1007.50
2017,04,09,23,04,1007.50
2017,04,09,23,05,1007.50
2017,04,09,23,06,1007.50
2017,04,09,23,07,1007.60
2017,04,09,23,08,1007.50
2017,04,09,23,09,1007.50
2017,04,09,23,10,1007.50
2017,04,09,23,11,1007.50
2017,04,09,23,12,1007.50
2017,04,09,23,13,1007.50
2017,04,09,23,14,1007.50
2017,04,09,23,15,1007.80
2017,04,09,23,16,1007.80
2017,04,09,23,17,1007.70
2017,04,09,23,18,1007.60
2017,04,09,23,19,1007.50
2017,04,09,23,20,1007.50
2017,04,09,23,22,1007.50
2017,04,09,23,23,1007.70
2017,04,09,23,24,1007.70
2017,04,09,23,26,1007.70
2017,04,09,23,27,1007.80
2017,04,09,23,28,1007.90
2017,04,09,23,29,1007.80
2017,04,09,23,31,1007.70
2017,04,09,23,32,1007.70
2017,04,09,23,33,1007.80
2017,04,09,23,34,1007.80
2017,04,09,23,36,1007.90
2017,04,09,23,37,1007.90
2017,04,09,23,38,1007.70
2017,04,09,23,39,1007.80
2017,04,09,23,41,1007.70
2017,04,09,23,42,1007.60
2017,04,09,23,43,1007.70
2017,04,09,23,44,1007.60
2017,04,09,23,46,1007.50
2017,04,09,23,47,1007.50
2017,04,09,23,48,1007.50
2017,04,09,23,49,1007.60
2017,04,09,23,51,1007.70
2017,04,09,23,52,1007.70
2017,04,09,23,53,1007.60
2017,04,09,23,54,1007.60
2017,04,09,23,56,1007.60
2017,04,09,23,57,1007.50
2017,04,09,23,58,1007.60
2017,04,09,23,59,1007.50
